{"data":{"norad_id":66354,"epoch":"2026-05-24T23:47:06.910080Z","epoch_age_seconds":76598,"freshness":"FRESH","line1":"1 66354U 25254G   26144.99105220  .00013821  00000+0  47776-3 0  9995","line2":"2 66354  53.1586 238.3436 0000855  79.4151 280.6946 15.30208202 30650","mean_motion":15.30208202,"eccentricity":8.55e-5,"inclination_deg":53.1586,"raan_deg":238.3436,"arg_perigee_deg":79.4151,"mean_anomaly_deg":280.6946,"bstar":0.00047776,"rev_number":3065,"period_min":94.104841296622,"perigee_km":474.60462032706,"apogee_km":475.77653934321,"semimajor_km":6853.3275798351,"source":"CELESTRAK","updated_at":"2026-05-25T13:38:21.174611Z"}}